GFSCGP_prec_radar_132.txt.gz
Reflectivity
-20 -20 -20 -20 -20 -20 -20 -20 -20 -20 37 -20 -20 -20 -3 -20 -1 27 8 5 -20 -20 -20 -20 -20 -20 -20 -20 -20 -20 -5 6 -20 -20 -20 -20 -20 -20 -20 -20 -20 -20 -20 -20
-20 -20 -20 -20 -20 -20 -20 -20 -20 -20 -20 -17 -20 1 0 -20 -1 24 21 16 -20 -20 -20 -20 -20 -20 -20 -20 -20 -19 -2 13 -20 -20 -20 -20 -20 -20 -20 -20 -20 -20 -20 -20
-20 -20 -20 -20 -20 -20 -20 -20 -20 -20 -20 -20 -20 11 -20 -20 -13 19 20 -20 -20 -20 -20 -20 -20 -20 -20 -20 -20 -20 -20 -20 -15 -20 -20 -20 26 2 -20 -20 -20 -20 -20 -20
-20 -20 -20 -20 -20 -20 -20 -20 -20 -20 -20 -3 -16 -13 -20 -19 -20 22 -20 -20 -20 -20 -20 -20 -20 -20 -20 -20 -20 -20 -12 -20 -20 -20 -20 -20 -20 -20 -20 -20 -20 -20 -20 -20
-20 -20 -20 -20 -20 -20 -20 -20 -20 -20 -20 -20 -20 -7 23 -20 -20 -1 -20 -20 -20 -20 -20 -20 -20 -20 -20 -20 -20 -20 -20 6 -20 -20 -20 -20 -20 -20 -20 -20 -20 -20 -20 -20
-20 -20 -20 -20 -20 -20 -20 -20 -20 -20 -20 -20 -20 -20 -0 -20 -20 -20 -20 -20 -20 -20 -20 -20 -20 -20 -20 -20 -20 -20 -20 -20 -20 -20 -20 -20 -20 -20 -20 -20 -20 -20 -20 -20
-20 -20 -20 -20 -20 -20 -20 -20 -20 -20 -20 -20 -20 -20 3 -20 -20 -20 -13 -20 -7 -19 -20 -20 -20 -20 -20 -20 -20 -20 -20 -20 -20 -20 -20 -20 -20 -20 -20 -13 -20 -20 -20 -20
-20 -20 -20 -20 -20 -20 -20 -20 -20 -20 18 19 -20 23 -12 -19 -20 -20 -18 -20 6 0 -20 -20 -20 -20 -20 -20 -20 -20 -20 -20 -20 -20 -20 -20 -14 -14 -20 -20 -20 -20 -20 -20
-20 -20 -20 -20 -20 -20 -20 -20 -20 5 -4 -3 -19 -17 -17 -20 -20 -20 -20 -20 -10 10 -20 -20 -20 -20 -20 -20 -20 -20 -20 -20 -20 -20 -20 -20 -20 -20 -20 -20 -20 -20 -20 -20
-20 -20 -20 -20 -20 -20 -20 -20 -20 -20 27 24 0 -20 13 -20 -20 -20 -14 -20 -20 20 -11 -20 -20 -20 -20 -20 -20 -20 -20 -20 -20 -20 -20 -20 -20 -20 -15 -20 -20 -20 -20 -20
-20 -17 -16 -20 -20 -2 -20 -20 -20 16 -19 28 20 28 -20 -3 -20 -20 -20 -20 -12 -7 18 -11 -20 -20 -20 -20 -20 -20 -20 -20 -20 -20 -20 -20 -20 -20 -20 2 -20 16 -20 -20
-20 -20 7 -14 -20 -19 -20 23 -2 -20 8 -12 30 -20 -20 -15 -14 -20 -20 -18 -20 25 24 -4 -20 -20 -20 -20 -20 -20 -20 -20 -20 -20 -20 -20 -20 -20 -20 -20 -20 -20 -7 -20
-20 -20 -0 -17 -20 -18 3 -20 -20 8 35 27 19 10 -15 -15 8 -17 -20 -20 -19 3 33 24 -8 -20 -20 -20 -20 -20 -20 -20 -20 -20 -20 -20 -20 -20 -20 -20 -20 -20 -20 -20
-20 -20 -20 18 14 29 -20 -20 -20 -20 13 23 5 -12 -0 -18 -20 -5 -20 -20 -20 19 20 31 1 10 -17 -20 -20 -20 -20 -20 -20 -20 -20 -20 -20 -20 -20 -20 -20 -20 -20 -20
-20 -20 -20 -20 -20 -20 -20 -20 -20 -20 -20 -16 21 1 -20 -14 -10 -1 -16 -20 -20 -16 10 24 32 15 21 -6 12 -20 -20 -20 -20 -20 -20 -20 -20 -20 -20 -20 -20 -20 -20 -20
-20 -20 -20 -20 -20 -20 -20 -20 -2 9 -20 -20 -20 -20 7 -3 -4 -20 -1 -17 1 -18 -10 2 26 14 25 19 25 11 -12 -10 -15 -20 -20 -20 -20 -20 -19 26 -19 -20 -20 -20
-20 -20 -20 -14 -11 -20 -20 -16 -20 -13 -20 -20 -20 9 -20 -18 -0 -2 -6 -6 -6 -4 4 7 -4 34 26 14 -4 22 -1 -12 -10 -20 -20 -19 -13 15 13 -11 13 21 -11 -17
-20 -20 -20 -17 -2 -20 -8 -18 -20 -20 -0 -20 -19 -20 -20 -19 1 -3 -6 -2 -7 -4 -20 -17 2 23 30 33 25 35 31 -2 -20 -20 -8 -6 -11 0 15 14 3 -8 32 26
-20 -20 -20 -20 -20 9 -20 -20 -20 -20 -20 -20 -20 -20 -20 -20 -20 -15 -15 1 14 -17 -16 4 33 26 14 14 27 31 33 28 1 -8 20 -9 17 30 11 8 -1 -6 30 -5
-20 -20 -20 -20 -20 -20 -20 -20 -20 -20 -20 -20 -20 -20 -20 -20 -20 -20 -20 -17 -20 13 -19 -17 14 35 13 6 28 24 33 33 31 10 32 -19 24 33 37 8 -4 30 25 33
-20 -20 -20 -20 -20 -20 -20 -20 -20 -20 -3 -20 -20 -20 -20 -20 -20 -20 -20 -20 -20 -3 -2 -17 -20 -20 13 10 7 19 31 28 36 35 26 23 14 24 13 16 -12 -20 -5 -15
-20 -20 -20 -20 -20 7 -20 -20 -20 -20 -20 -20 -20 -20 -20 -20 -20 -20 -20 -20 -20 -13 -11 -9 -4 -10 0 10 8 9 29 17 18 21 22 13 23 7 -20 -11 9 12 25 5
-20 -20 -20 -20 -20 -20 -20 -20 -20 -20 -20 -20 -20 -20 -20 -20 -20 -20 -20 -20 -20 1 -20 -11 -6 4 7 -0 5 7 3 1 -9 7 -1 -4 26 -5 -2 3 -2 31 19 37
-20 -20 -20 -20 -20 -20 -20 -20 -20 -20 -20 -20 -20 -20 -20 -20 -20 -20 -20 -20 -20 -20 0 -5 -3 -3 -4 10 13 6 -4 17 -18 -17 -4 -17 -20 -20 -20 -20 -1 -1 17 10
-20 -20 -20 -20 -20 -20 -20 -20 -20 -20 -20 -20 -20 -20 -20 -20 -20 -20 -20 -5 -9 -14 -14 -20 -14 -2 -13 8 13 -4 15 2 -20 -4 -12 -20 -20 -20 -20 -20 -20 0 14 2
-20 -20 -20 -20 -20 -20 -20 -20 -20 -20 -20 -20 -20 -20 -20 -20 -20 -20 -19 -1 -14 1 -2 -20 -20 -20 -19 11 -2 14 -10 10 6 -20 -20 -8 -5 -2 -14 -20 -10 9 23 17

GFSCGP_prec_radar_135.txt.gz
Reflectivity
-20 -20 -20 -20 -12 14 5 24 -15 33 -19 -11 -20 -20 8 -20 -0 23 26 -13 -13 28 -20 -20 -20 -20 -20 -20 -15 -20 -20 -20 -15 -20 -20 -20 -20 -20 -20 -20 -20 -19 12 -20
-20 -20 -20 -20 -20 -20 -20 -20 -12 -20 -20 -20 -20 -20 -20 -20 -20 -18 27 -1 14 -20 19 -20 -12 -20 -20 -20 -16 31 -3 -20 -20 -20 -20 -20 -20 -20 -20 19 -20 -20 -20 -20
-20 -20 -20 -20 -20 -20 -20 -4 -11 1 15 -20 -20 -20 -20 -20 16 -16 21 28 24 -16 34 4 -10 -20 -20 -20 -20 -20 -20 -9 -20 -20 -20 -20 -20 -20 14 -12 -20 -20 -20 -20
-20 -20 -20 -20 -20 -20 -13 6 -11 -6 -20 -20 3 -20 -20 -11 -6 9 25 23 -18 7 11 29 -18 -20 -20 -20 -20 -20 -20 -2 -20 -20 -11 -20 -20 -20 -18 -20 -20 -20 -20 -20
-20 -20 -20 -20 -20 -20 9 -9 20 -20 -3 -20 -20 -20 -20 -18 -20 -16 12 -20 -20 -19 -20 30 -15 -20 -20 -20 -20 -20 -20 -18 -18 -20 2 -19 -20 -20 -20 -20 -20 -20 -20 -20
-20 -20 -20 -20 -20 -20 -20 -20 -20 -20 -20 -20 -16 -20 -18 23 -20 -20 4 -20 -17 -13 23 -20 -20 -20 -20 -20 -20 -20 -20 19 18 -20 -20 -20 -20 25 -20 -20 -20 -20 -20 -20
-20 -20 -20 -20 -20 -20 -20 -20 -20 -18 -11 -2 -9 -16 5 27 -13 -20 23 11 -20 -20 -20 -12 13 -7 -15 -13 -20 -20 -20 -20 -20 -20 -20 -20 -20 -20 -7 -20 -20 -20 -20 -20
-20 -20 -20 -20 -20 -20 -20 -20 -8 3 29 -12 -0 -19 8 11 -20 -20 -20 -6 4 17 -18 -20 -20 -20 -20 11 -20 -20 -20 -20 -20 -20 -7 25 -20 -20 -20 -10 -11 -13 -20 -20
-20 -20 -20 -20 -20 -20 -20 -20 -17 24 -7 -20 -18 8 -18 -20 -20 -20 -20 -20 21 -18 5 21 -3 -20 -20 -20 -20 -20 -20 -20 -20 -20 -20 23 14 -20 -20 -20 -20 -20 -20 10
-20 -6 -20 -20 -20 -20 -20 -1 -20 -20 -18 -19 24 46 -6 -20 -20 -20 -20 -20 -16 -17 -4 26 13 -20 -20 -20 -20 -20 -20 -20 -20 -20 -20 -20 -20 -20 -20 -20 33 -20 -20 -16
-20 -20 9 -20 -20 6 -20 5 -20 -17 9 23 -4 31 14 -18 -20 -20 -20 -20 -20 -20 -4 17 27 -20 -20 -20 -20 -20 -20 -20 -20 -20 -20 -20 -20 -20 -20 -20 -20 -20 -20 -20
-20 -20 -20 25 6 21 30 22 4 2 10 -12 -18 41 14 -20 -20 -20 -20 -20 -20 -20 -20 11 9 3 -20 -20 -20 -20 -20 -20 -20 -20 -20 -20 -20 -20 -20 -20 -20 -5 -18 -20
-18 -20 -19 -17 -2 -13 -16 2 30 3 5 -20 -14 23 33 -10 -20 -20 -20 -20 -20 -20 -16 30 12 35 -18 -17 16 -20 -20 -20 -20 -20 -20 -20 -20 -20 -20 3 -19 21 -13 -12
-20 -20 -20 16 8 24 -14 17 6 25 24 14 -10 -7 31 -14 -20 -20 -20 -20 -20 -20 -20 21 31 49 35 -16 31 -20 -20 -20 -20 -20 -20 -20 -20 -20 -20 -20 -20 -20 -8 -20
-20 -20 -20 -2 -20 -15 -15 20 24 0 20 13 -2 2 39 30 -13 -20 -20 -20 -20 -20 4 20 26 36 -20 -20 -1 39 -1 -20 -20 -20 -20 -20 -20 -20 -20 -20 -20 -20 -20 -20
-20 -20 -20 -20 4 -20 -20 -6 -17 -20 -4 20 35 40 12 -10 -2 -11 -20 -20 -20 5 -20 11 24 28 22 -5 -20 -19 -18 -20 -20 29 -20 8 26 25 -2 -20 22 23 23 20
-20 -20 -8 -20 -5 -10 -20 -20 -20 -20 -20 -0 10 36 6 -17 -20 -20 -7 -7 -10 -4 26 -3 5 14 7 11 -13 -20 -11 -6 -17 14 28 -15 -16 -18 18 -6 28 -9 -20 25
-20 -20 -20 -20 10 3 22 7 -20 -1 -20 -20 -19 1 -16 -11 -20 -20 -20 -18 -20 -4 31 27 16 12 7 13 10 7 1 12 26 14 -2 29 -20 5 6 -7 -11 -16 -20 5
-20 -20 -20 -20 -20 2 -12 -19 -20 -20 -20 11 -20 -16 -20 -20 -20 -20 -20 -20 -20 -20 -20 -16 29 17 16 29 19 4 12 12 10 25 22 29 31 26 -19 -15 -20 -14 26 24
-20 -20 -20 -20 -20 -20 -17 28 -20 -20 -20 -17 35 -15 -20 -20 -20 -17 -20 -20 -20 -20 -12 -20 -2 -0 1 15 13 7 1 21 16 26 32 2 20 29 -13 -1 19 10 -20 -12
-20 -20 -20 -20 -20 -11 -2 -20 -20 -20 -20 -20 -20 -20 -20 -20 -20 -20 -20 -20 -20 -20 -18 -5 5 2 -7 2 -1 9 27 21 27 22 32 30 15 27 11 14 7 22 16 -10
-20 -20 -20 -20 -13 17 16 -20 -20 -20 -20 -20 -20 -20 -20 -20 -20 -20 -20 -20 -20 -20 -20 -20 -20 -2 -6 -2 2 10 -2 17 26 24 35 37 35 30 30 32 22 -8 18 20
-20 -20 -9 8 27 -18 -20 -20 -20 -20 -20 -20 -20 -20 -20 -20 -20 -20 -20 -20 -20 -20 -20 -20 -2 3 -5 -4 -12 20 6 4 29 31 37 39 35 36 33 20 25 3 -19 -19
-19 -20 -20 -20 -20 -20 -20 -20 -20 -20 -20 -20 -20 -20 -20 -20 -20 -20 -20 -20 -20 -20 -2 -5 -3 -12 -20 -11 -2 14 14 4 4 7 11 28 25 11 21 5 1 -10 -18 -16
18 9 19 -20 -20 -20 -20 -20 -20 -20 -20 -20 -20 -20 -20 -20 -20 -20 -20 -20 -20 -20 -20 -13 -4 -20 -20 -12 7 19 5 -2 16 12 -8 2 9 -0 0 -6 -12 -14 -20 -20
-8 -20 -11 -5 28 -17 -20 -20 -20 -20 -20 -20 -20 -20 -20 -20 -20 -20 -20 -20 -20 -20 -13 -17 -17 -4 -20 -14 -3 13 21 18 16 5 7 1 -14 -20 5 -10 -20 -12 -20 -20

GFSCGP_prec_radar_138.txt.gz
Reflectivity
-20 -20 -20 -20 -8 8 -11 -10 -2 2 -10 6 -20 -20 -20 -20 -3 -19 6 -14 -4 -20 -20 -17 3 -18 -20 -20 -20 -20 -20 4 -20 -20 -20 -20 -20 -20 -20 -20 -20 -5 -20 -20
-20 -20 -20 -20 -20 -19 -20 -20 -10 12 -20 -20 -20 -20 -20 -20 -20 -20 -7 23 11 23 -17 -18 -20 23 -20 -20 -20 -20 -10 -20 -20 -20 -20 -20 -20 -20 -20 -20 -16 32 -7 -20
-20 -20 -20 -20 -20 -14 -20 5 -17 -6 -20 -20 -20 -20 -20 -20 -20 -20 -20 5 14 23 24 0 -20 -20 -20 -20 -20 -20 -20 17 2 -20 -20 -20 -20 -20 -20 -20 -4 -20 -20 -20
-20 -20 -20 -20 -20 -20 -20 -11 7 -20 -20 -19 -18 -20 14 -20 -20 -20 -20 -20 7 20 11 26 -20 -20 -18 -20 -20 -20 -20 -15 -20 -20 3 -20 -20 -20 -20 -20 -20 -20 -20 -20
-20 -20 -20 -20 -20 -20 -20 -20 -20 -20 -20 -20 -20 -20 -12 11 18 -20 -20 -20 16 -12 25 3 1 -20 -7 -20 -20 -20 -20 -20 25 26 -20 -20 -20 5 -16 -20 -20 -14 -20 -20
-20 -20 -20 -20 -20 -20 -20 -20 -20 -19 -20 -20 -15 2 28 -5 17 -10 -20 -20 2 -20 -20 -1 26 -19 -20 -4 -20 -20 -20 -20 -20 -5 -20 -20 26 -20 -20 -20 -20 -20 -20 -20
-20 -20 -20 -20 -20 -20 -20 -20 -20 -20 -20 4 -4 -19 -3 7 -8 1 -20 -20 -20 -20 -20 8 25 22 -20 -16 -18 -20 -20 -20 -20 -20 -20 -20 -20 -20 -20 -14 12 -20 -20 -20
-20 -20 -20 -20 -20 -20 -20 -20 -20 17 18 10 3 1 0 -20 -20 -15 -20 -20 -7 -20 -16 20 6 -20 13 -20 -20 -20 -20 -20 -20 -20 11 10 23 24 11 -20 -20 -20 -20 -3
-15 -20 -20 -20 -20 -20 -20 -20 -20 19 -15 -20 12 -15 30 -8 -17 -20 -20 -20 -1 -1 -20 -11 16 -19 13 -20 4 -20 -20 -20 -20 -20 -20 -20 -20 -13 -20 -20 -20 -20 3 10
-20 -20 -20 -20 -20 -20 -20 -13 -20 -20 -20 -9 36 -20 -20 -18 45 16 -20 -19 1 -14 -1 -17 -19 -20 -20 -20 -7 -16 -20 -20 -20 -19 -20 -20 -20 -20 -20 -20 -20 -20 -6 -20
-20 -20 -20 -20 -5 -20 -20 -20 -20 5 -15 18 22 -12 -3 34 18 36 14 -14 -20 -19 -17 -8 -20 -7 12 10 -20 -20 -20 -20 -20 -20 -20 -20 -20 -20 -20 -18 20 -11 -20 3
-20 -20 -19 -20 24 -14 -20 -20 -16 -20 15 32 4 29 36 26 32 11 -18 -3 40 -20 -20 -20 -20 10 14 34 -20 -20 -20 -20 -20 -20 -20 -20 24 28 -20 -20 -20 -20 -20 -20
-20 -20 -20 18 29 12 -17 -20 -20 -20 4 -7 15 34 18 15 37 8 -20 -20 -20 -20 -20 -17 -20 -16 8 34 -14 1 -20 -20 -20 -20 -20 -20 -20 -20 -20 -20 -20 -20 -20 -17
-20 -20 -20 1 -6 8 11 -20 -0 -20 -20 -20 -3 19 20 9 43 10 -20 -20 -20 -20 -20 -20 -20 -20 32 33 14 -9 -20 -20 -20 -20 -20 -20 -20 -20 -20 -20 -20 -9 -7 -20
-20 -20 -20 3 -9 -20 -20 -20 -20 -20 -20 -20 -20 -20 -6 7 26 22 -9 -20 -20 -20 -20 -20 -16 9 15 17 20 24 29 27 -20 -20 -17 -20 -20 -20 -20 11 -20 -16 8 -7
-20 -20 -20 -20 -20 -6 -20 -20 -20 -20 29 23 -20 -20 -20 -20 9 5 -19 30 -20 -14 -20 -20 -17 16 38 39 37 34 47 38 31 24 -20 4 17 24 22 -20 -20 -19 -20 25
-20 -20 -20 -20 8 -10 -18 8 8 13 24 23 -16 -9 -20 32 12 -5 -20 -14 -20 -20 -20 -20 -20 17 -8 18 35 32 33 38 42 48 10 26 -3 -7 -20 -11 -20 -20 -20 -16
-20 -20 -20 -20 -20 -20 -20 -20 -15 13 16 29 -13 -4 -8 28 31 -7 -20 -20 -20 -20 -20 -20 -20 -20 15 16 29 35 31 16 27 30 23 29 -20 -20 -20 -8 30 21 22 1
-20 -20 -20 -20 -20 -20 -20 -20 -15 -20 6 -14 30 5 -1 -2 28 12 -20 -20 -20 -20 -20 -20 -19 -20 -3 8 6 20 22 -6 -1 -20 9 -20 -20 28 -20 22 25 -20 -20 -10
-20 -20 -20 -20 -20 -13 15 -15 -20 -19 -20 -18 -20 -20 23 37 34 3 -19 -20 -20 -20 -20 -19 -19 -20 1 -2 -16 12 21 16 12 -12 -16 28 -20 -19 12 13 28 -20 -18 26
-20 -20 -20 -20 -20 -16 -19 -20 -20 4 5 0 5 32 26 10 13 -8 -19 -20 -20 -20 -20 -20 -20 4 -5 9 -4 -1 10 16 10 -20 -11 21 15 20 23 32 -17 2 -16 -20
-20 -20 -20 -20 -20 7 9 -20 -20 -12 -20 -20 -20 -20 -20 -20 -19 -19 -20 -20 -20 -20 -20 -20 -17 9 -20 -17 -6 4 -20 -9 15 5 -20 17 32 24 24 32 28 19 26 13
-20 -14 3 -7 -20 -20 -20 -20 -20 12 -13 -20 -20 -20 -20 -20 -20 -20 -20 -20 -20 -20 -20 -18 -3 -20 -20 -20 -15 -5 -1 4 9 25 -15 8 34 29 33 32 33 33 27 29
-20 -20 -20 -20 -17 -20 -20 -16 -20 -20 -20 -20 -20 -20 -20 -20 -20 -20 -20 -20 -20 -20 -20 -19 -9 -9 -20 -12 -20 3 -14 9 7 17 -3 -13 -17 22 30 35 32 33 19 7
-18 19 -20 -20 -2 5 -20 -20 -20 -20 -20 -20 -20 -20 -20 -20 -20 -20 -20 -20 -16 -20 -20 -2 -18 -20 -20 -9 -9 7 -7 9 -12 12 2 -12 -7 6 18 16 14 13 -0 -6
20 -20 -20 -20 13 -0 17 2 -20 -20 -20 -20 -20 -20 -20 -20 -20 -20 -20 -20 -20 -20 -18 8 -18 -10 -20 -18 -20 -1 6 14 18 12 14 -4 -20 -14 4 8 7 1 -13 5

GFSCGP_prec_radar_141.txt.gz
Reflectivity
-20 -20 -20 -20 -20 -20 -3 -5 -12 -20 -2 5 -4 -20 -20 -20 -20 -17 -20 -20 -20 -19 -20 -20 -20 -20 -20 -20 -20 -20 -20 -19 -20 -20 -20 -20 -20 -20 -20 -20 -20 -20 -20 -10
-20 -20 -20 -20 -20 -20 -7 -20 2 26 20 27 -10 -20 -20 -20 -20 -20 -20 -20 -20 -1 6 -20 -20 -20 -20 -20 -20 -20 -20 -20 -20 -20 -20 -20 -20 -20 -20 -20 -20 -20 -20 -20
-20 -20 -20 -20 -20 -13 -17 -10 -20 -20 -3 -9 -20 -20 -20 -20 -20 -20 -20 -20 -20 -9 -18 -20 -20 -20 -20 -20 -20 -20 -20 -20 -20 -20 -20 -20 -20 -20 -20 -20 -20 -20 -20 -20
-20 -20 -20 -20 -20 -20 -8 19 -1 -20 -20 -20 -20 -20 -20 -20 -20 -20 -20 -20 -20 -20 -20 -20 -6 -20 -20 -20 -20 -20 -20 -20 -20 -20 -20 -20 -20 -20 -20 -20 -20 -20 -20 -20
-20 -20 -20 -20 -20 -20 -20 -19 -20 -20 -20 -20 -20 -20 -20 32 -20 -20 -20 -20 -20 -20 -20 10 -11 -20 -20 -20 -20 -20 -20 -20 -20 -20 -20 -20 -1 -20 -20 -20 -20 -20 -20 -20
-20 -20 -20 -20 -20 -20 -20 -20 -20 -20 -20 -20 -20 -10 28 -20 -18 -20 -20 -20 -20 -19 -3 5 -20 -20 5 -20 -20 -20 -20 -20 -20 -20 -20 -20 -20 -17 -15 -20 -20 -20 -20 -20
-20 -20 -20 -20 -20 -20 -20 -20 -20 -20 -20 -20 -20 -20 -20 -20 -20 -20 -20 -20 -20 -20 -20 -20 -20 -20 -20 -10 13 -20 -20 -20 -20 -20 -20 -20 -20 -20 -15 -20 -20 -20 -20 -20
-20 -13 -20 -20 -20 -20 -20 -20 -20 -20 -20 -17 -20 -20 -20 17 -3 -20 -20 -20 -20 -20 -20 -20 -20 -19 -20 -20 -20 -20 -20 -20 -20 -20 -20 -20 -20 -20 -20 -20 -20 -20 -20 -20
-20 -20 -20 -20 -20 -20 -20 -20 -20 -20 -20 -20 -20 -18 -20 -19 19 -20 -14 -13 18 -20 -20 -20 -20 -20 -20 -20 -20 -20 -20 -20 -20 -20 -20 -20 -20 -20 -20 -20 -20 -20 -20 -20
-20 -2 -20 -20 -20 -20 -20 -20 -20 -20 -20 -4 -20 -20 -16 -20 -18 6 -17 17 -20 -20 -20 -20 -20 -19 3 -20 -5 -20 -20 -20 -20 -20 -20 -20 -20 -20 -19 -20 -20 -20 -20 -20
-20 -20 -8 -20 -20 -20 -20 -20 -20 -20 -20 -20 0 10 -18 -20 -20 22 22 20 -13 -0 -20 -20 -20 -20 -17 -13 -20 -20 -20 -20 -20 -20 -20 -20 -20 -20 -20 -20 -20 -20 -20 -20
-20 -20 -20 -20 -20 -20 -20 -20 -20 -20 -20 -20 -20 -7 -20 -20 -18 17 38 34 27 -0 -18 -20 -20 -20 -20 3 -20 31 -20 -20 -20 -20 -20 -20 -20 -20 -20 -20 -20 -20 -20 -20
-20 -20 -20 -20 -20 -20 -20 -20 -20 -20 -20 -20 -20 -20 -20 -2 2 12 51 41 33 41 14 20 -7 -6 36 -20 -9 28 2 -8 -20 -20 -20 -20 -20 -20 -20 -20 -20 -20 -20 -20
-20 -20 -20 -20 -20 -20 -20 -20 -20 -20 -20 -20 -20 -20 -20 -20 -2 28 37 36 35 26 14 16 34 23 -20 25 8 38 43 31 30 4 -20 -20 -20 -20 -20 -20 -20 -20 -20 -20
-20 -20 -20 -20 -9 -20 -20 -20 -20 -20 -20 -20 -20 -20 -20 -20 -4 19 14 27 36 5 -9 -18 -20 -20 11 24 14 18 48 27 31 -20 3 -5 -20 -20 -18 -20 -20 -20 -20 -20
-20 -20 -20 -20 -20 -20 -20 -20 -20 -20 -20 -20 -20 -20 -20 -20 4 6 1 -14 28 -4 -20 -20 -20 -20 -14 28 20 18 41 -0 26 21 23 -8 -20 -20 -20 12 13 6 -20 -20
-20 -20 -20 -20 -20 -20 -20 -18 -15 11 -2 -4 -20 -20 -20 14 -18 6 22 -20 -20 -18 -13 -20 -20 -20 -20 -5 -2 17 33 39 18 -10 39 33 32 -20 -6 3 27 -17 -20 -16
-20 -20 -20 -20 -20 -20 -20 -20 -20 -20 -20 -1 -5 -20 -14 -20 -9 -18 -16 -20 -20 -20 -20 -20 -20 -20 -20 -14 -3 27 29 32 26 17 39 40 28 12 -20 9 -20 30 5 -20
-20 -20 -20 -20 -20 -20 -20 -20 -20 -20 -20 -18 11 16 7 -20 -20 -20 -20 -20 -20 -20 -20 -20 -20 -20 -20 -2 -9 0 7 15 30 27 41 42 29 25 29 32 -16 -20 31 24
-20 -20 -20 -20 -20 -20 -15 1 -17 -20 -20 -20 -20 5 -20 -20 -20 -20 -20 -20 -20 -20 -20 -20 -20 -20 -20 -20 -17 -20 -17 6 -0 23 24 31 34 37 36 30 30 -15 30 -2
-20 -20 -20 -20 -20 -20 -20 -20 -20 -20 9 -14 -20 -16 -20 -19 -14 -20 -20 -20 -20 -20 -20 -20 -20 -20 -20 -20 -20 -20 -20 -20 6 2 10 13 19 30 30 20 26 27 21 -12
-20 -20 -20 -20 -20 -20 -20 -20 -20 -20 8 -20 21 -19 -20 -11 28 8 -18 -20 -20 -20 -20 -20 -20 -20 -20 -20 -20 -20 -8 -16 -7 -8 -1 -3 0 11 20 23 20 -20 -20 12
-20 -20 -20 -20 -20 -20 -20 -20 -20 -20 -2 -17 -20 -20 -20 -20 2 5 -6 -20 -20 -20 -20 -20 -20 -20 -20 -20 -18 7 -3 -13 -6 -4 6 -1 -7 -3 20 38 30 24 10 19
-10 -20 -20 -20 -20 -20 -20 -20 -3 -12 -20 -10 -20 -8 -20 -20 -20 -20 -20 -20 -20 -20 -20 -19 -16 -20 -19 -20 -19 -20 19 -20 -12 5 -6 14 -16 -20 -15 4 24 34 32 20
-20 -20 -20 -20 -20 -20 4 3 -20 -20 -20 -20 -20 -20 -20 -20 -20 -20 -20 -20 -20 -20 -20 -1 -14 -20 -20 -20 -5 6 7 -18 -19 14 14 -9 10 -14 -18 -5 5 18 14 3
-15 -20 -20 -20 -20 -20 -20 -20 -20 -20 -20 -20 -20 -20 -20 -20 -20 -20 -20 -20 -20 -20 -18 2 -2 -5 -20 -20 -20 6 3 -13 -0 -12 -20 -14 -16 6 4 -14 -1 5 13 10

GFSCGP_prec_radar_147.txt.gz
Reflectivity
-20 -20 -20 -20 -20 -20 -20 -20 -20 -20 -20 -20 -20 -20 -20 -20 -20 -20 -20 -12 -20 21 -20 -20 -20 -20 -20 -20 -20 -20 -20 -20 -20 -20 -20 25 -20 -20 -20 -20 -20 -20 -20 -20
-20 -20 -20 -20 -20 -20 -20 -20 -20 -20 -20 -17 -20 -20 -20 -20 -20 -20 -20 -20 -20 -20 -20 -20 -20 -20 -20 -20 -20 -20 -20 -20 -20 -20 -20 8 -15 -20 -20 -20 -20 12 -20 -20
-20 -20 -20 -20 -20 -20 -20 -20 -20 -20 -20 -20 5 23 -20 -20 -9 -20 -4 -20 -20 -11 -20 -20 -20 -20 -20 -20 -20 -20 -20 -20 -20 -20 -20 -16 -20 -20 -20 -20 -20 -20 -20 -20
-20 -20 -20 -20 -20 -20 -20 -20 -20 -20 -20 -20 -20 -20 -20 -20 -20 -20 -20 -20 -20 -18 -12 -10 -20 -20 -20 -20 -20 -20 -20 -20 -20 -20 -20 -20 -20 -20 -20 -20 -20 -20 -20 -20
-20 -20 -20 -20 -20 -20 -20 -20 -20 -20 -20 -20 -20 -20 -20 -20 25 26 -20 -20 -20 -20 -20 -20 -20 -20 -20 -20 -20 -20 -20 -20 -20 -20 -20 -20 -20 -20 -20 -20 -20 -20 -20 -20
-20 -20 -20 -20 -20 -20 -20 -20 -20 -20 -20 -20 -20 -20 -20 -20 -20 -20 -17 28 -20 -20 -15 -20 -4 -20 16 -20 -20 -20 -20 -20 -20 -20 -20 -20 -20 -20 -20 -20 -20 -20 -20 -20
-20 -20 -20 -20 -20 -20 -20 -20 -20 -20 -20 -20 -20 -20 -20 -20 -20 -20 -20 -13 8 -18 -20 -9 -18 -20 -20 -20 -20 -20 -20 -20 -20 -20 -20 -20 -20 -20 -20 -20 -20 -20 -20 -20
-20 -20 -20 -20 -20 -20 -20 -20 -20 -20 -20 -20 -20 -20 -20 -20 -20 -20 -20 -20 -20 27 -15 25 20 14 -20 -20 -20 -20 -20 -20 -20 -20 -20 -20 -20 -20 -20 -20 -20 -20 -20 -20
-20 -20 -20 -20 -20 -20 -20 -20 -20 -20 -20 -20 -20 -20 -20 -20 -20 -20 -20 -20 -20 -20 -19 -14 8 -15 -20 -20 -20 -20 -20 -20 -20 -20 -20 -20 -20 -20 -20 -20 -20 -20 -20 -20
-20 -20 -20 -20 -20 -20 -20 -20 -20 -20 -20 -20 -20 -20 -20 -20 -20 -20 -20 -20 -20 -20 -0 10 -16 9 -20 -20 -20 -20 -20 -20 -20 -20 -20 -20 -20 -20 -20 -20 -20 -20 -20 -20
-20 -20 -20 -20 -20 -20 -20 -20 -20 -20 -20 -20 -20 -20 -20 -20 -20 -20 -20 -20 -20 -20 -20 -20 11 -20 -20 -20 -20 -20 -20 -20 -20 -20 -20 -20 -20 -20 -20 -20 -20 -20 -20 -20
-20 -20 -20 -20 -20 -20 -20 -20 -20 -20 -20 -20 -20 -20 -20 -20 -20 -20 -20 -20 -20 -20 -20 -20 -20 -20 -20 20 -8 -20 -20 -20 -20 -20 -20 -20 -20 -20 -20 -20 -20 -20 -20 -20
-20 -20 -20 -20 -20 -20 -20 -20 -20 -20 -20 -20 -20 -20 -20 -20 -20 -20 -20 -20 -20 -20 -20 -20 -16 -20 -20 -20 -3 -17 21 15 -20 -20 -20 -20 -20 -20 -20 -20 -20 -20 -20 -20
-20 -20 -20 -20 -20 -20 -20 -20 -20 -20 -20 -20 -20 -20 -20 -20 -20 -20 -20 -20 -20 -15 -20 18 -20 -20 -20 -15 -4 31 7 31 6 -20 -20 -20 -20 -20 -20 -20 -20 -20 -20 -20
-20 -20 -20 -20 -20 -20 -20 -20 -20 -20 -20 -20 -20 -20 -20 -20 -20 -20 -20 -20 -20 -20 -8 14 15 0 -20 -20 -6 20 -19 28 -15 33 19 -20 -20 -20 -20 -20 -20 -20 -20 -20
-20 -20 -20 -20 -20 -20 -20 -20 -20 -20 -20 -20 -20 -20 -20 -20 -20 -20 -20 -20 -20 -8 13 34 22 25 18 2 -10 39 29 31 28 31 27 8 -19 -19 -20 -20 -20 -20 -20 -20
-20 -20 -20 -20 -20 -20 -20 -20 -20 -20 -20 -20 -20 -20 -20 -20 -20 -20 -20 -20 -2 17 1 24 30 31 21 -7 30 30 20 33 29 12 21 36 20 25 -20 -20 -20 -20 -20 3
-20 -20 -20 -20 -20 -20 -20 -20 -20 -20 -20 -20 -20 -20 -20 -20 -20 -20 -20 -20 -14 -15 11 13 18 17 16 15 24 19 16 22 -1 9 30 27 31 32 -3 -20 -20 -20 -20 -20
-20 -20 -20 -20 -20 -20 -20 -20 -20 -20 -20 -20 -20 -20 -20 -20 -20 -20 -20 -20 -20 -8 -1 11 -1 12 -3 -14 11 15 12 -19 -14 -6 24 31 37 24 18 -18 -20 -20 -20 -20
-20 -20 -20 -20 -20 -20 -20 -20 -20 -20 -20 -20 -20 -20 -20 -20 -20 -20 -20 -20 -20 -12 3 -13 -10 4 -4 -11 -3 5 -3 -20 -20 -20 -10 8 25 27 36 30 7 11 30 34
-20 -20 -20 -20 -20 -20 -20 -20 -20 -20 -20 -20 -20 -20 -20 -20 -20 -20 -20 -20 -20 -20 -20 -20 -20 -10 -15 -20 -15 -20 -20 -17 -18 -20 -20 -20 -20 -1 14 22 15 15 7 23
-20 -20 -20 -20 -20 -20 -20 -20 -20 -20 -20 -20 -20 -20 -20 -20 -20 -20 -20 -20 -20 -20 -20 -20 -20 -20 -20 -7 -13 -15 -12 -20 -20 -20 -7 -20 -18 -20 -4 -19 0 20 22 7
-20 -20 -20 -20 -20 -20 -20 -20 -20 -20 -20 -20 -20 -20 -20 -20 -20 -20 -20 -20 -20 -20 -20 -20 -20 -20 -20 -20 -20 -20 -4 -20 8 4 11 -18 -20 -20 -20 -20 -15 -19 4 -1
-20 -20 -20 -20 -20 -20 -20 -20 -20 -20 -20 -20 -20 -20 -20 -20 -20 -20 -20 -20 -20 -20 -20 -20 -20 -20 -20 -15 2 -20 -19 -20 10 10 -3 13 -12 1 -10 -20 -20 -20 -20 -20
-20 -20 -20 -20 -20 -20 -20 -20 -20 -20 -20 -20 -20 -20 -20 -20 -20 -20 -20 -20 -20 -20 -20 -20 -20 -20 -15 -17 -20 -11 5 5 10 -10 7 -20 -20 -20 -20 -20 -18 -20 -20 -20
-20 -20 -20 -20 -20 -20 -20 -20 -20 -20 -20 -20 -20 -20 -20 -20 -20 -20 -20 -20 -20 -20 -20 -20 -20 -20 -20 -20 -20 -20 2 6 8 -9 5 11 -19 1 -5 -20 -20 -6 5 -20